Tracking 31027 objects as of 19-Jul-2025
HD Live streaming from Space Station
objects crossing your sky now

STARLINK-31281

Track STARLINK-31281 now!
10-day predictions
STARLINK-31281 is classified as:


NORAD ID: 59077
Int'l Code: 2024-041D
Perigee: 489.3 km
Apogee: 491.1 km
Inclination: 43.0 °
Period: 94.3 minutes
Semi major axis: 6861 km
RCS: Unknown
Launch date: February 29, 2024
Source: United States (US)
Launch site: AIR FORCE EASTERN TEST RANGE (AFETR)
Your satellite tracking list
COSMOS 830
Track 1 satellite(s)




NASA's NSSDC Master Catalog

Two Line Element Set (TLE):
1 59077U 24041D   25199.00784363  .00000182  00000-0  16120-4 0  9991
2 59077  43.0008 195.7499 0001276 272.2129  87.8577 15.27578631 78439
Source of the keplerian elements: AFSPC